Location: Arbon
(43.0005°N, 0.7472°E)
Time: 00:56:30
(UTC+00:00)

S-56A Canister/Altair - Pass Details

Date: 09 December 2020
Orbit: 633 x 2499 km, 38.9° (Epoch: 19 January)

Event Time Altitude Azimuth Distance (km) Brightness Sun altitude
Rises 19:55:38 0° 276° (W) 5,927 13.0 -38.1°
Reaches altitude 10° 19:59:53 10° 274° (W) 4,729 12.2 -38.9°
Enters shadow 20:11:37 61° 213° (SSW) 1,889 9.3 -41.0°
